Location: Hopewell Observatory
(38.8698°N, 77.6988°W)
Time: 03:08:00
(UTC-04:00)

Cosmos 292 Rocket - Pass Details

Date: 26 May 2018
Orbit: 673 x 695 km, 74.0° (Epoch: 14 August)

Event Time Altitude Azimuth Distance (km) Brightness Sun altitude
Rises 21:21:26 0° 182° (S) 3,020 6.7 -9.9°
Reaches altitude 10° 21:23:47 10° 176° (S) 2,106 5.9 -10.2°
Maximum altitude 21:28:18 46° 104° (ESE) 905 4.0 -10.9°
Drops below altitude 10° 21:32:51 10° 31° (NNE) 2,113 6.4 -11.6°
Sets 21:35:13 0° 25° (NNE) 3,030 7.3 -12.0°
